Lid_Strength_Index
6 6 6 6 6 6 5 5 6 6 6 6 6 5 5 5 5 6 8 5 5 3 4 6 4 5 6 7 6 5 10 11 10 10 8 6 7 5 5 6 5 5 5 3 2
6 6 6 6 6 6 6 6 6 6 6 6 6 6 5 5 7 8 4 3 3 3 7 8 7 5 8 8 7 8 10 10 8 7 8 7 7 6 7 7 7 6 5 3 2
6 6 6 6 6 6 6 6 6 6 6 6 6 6 5 5 8 7 2 3 3 3 7 7 6 6 7 7 8 9 10 9 8 7 7 7 7 6 7 8 7 6 6 5 5
6 6 6 6 6 6 6 6 6 6 6 7 6 6 5 6 13 6 3 3 4 5 6 6 8 8 8 9 7 10 8 8 8 7 7 8 7 7 7 7 5 5 5 5 4
6 6 6 6 6 6 7 6 7 7 7 6 6 5 6 9 8 6 3 3 4 6 5 6 8 8 10 9 8 9 8 7 7 8 8 8 9 8 8 6 6 5 5 5 5
6 6 6 7 7 7 7 7 7 7 7 6 5 5 7 12 6 6 6 6 6 5 6 5 6 6 8 9 9 8 8 8 8 8 9 9 9 9 8 7 7 6 6 6 5
7 7 7 7 7 8 7 7 7 7 6 5 5 5 8 9 6 5 6 7 7 6 6 4 4 6 6 8 7 8 10 9 8 8 9 8 11 10 8 7 7 7 6 5 4
7 7 8 8 8 7 7 7 7 6 6 4 4 5 10 5 5 6 6 6 5 6 6 5 4 6 7 6 8 10 10 13 10 10 9 9 13 10 8 7 7 6 6 5 5
8 8 8 8 7 7 7 6 6 6 4 5 5 6 10 5 7 5 4 6 5 5 6 6 6 8 7 10 11 11 14 13 12 9 9 9 12 9 6 6 6 6 5 5 5
8 8 8 7 7 7 7 7 5 5 5 4 5 8 6 8 6 5 3 4 5 6 7 8 9 10 10 11 15 13 13 12 12 10 8 10 10 9 7 7 7 6 5 4 4
7 8 7 7 7 7 7 6 8 7 6 8 8 8 8 7 5 6 5 5 4 6 9 8 11 13 11 10 10 11 11 12 11 9 9 10 10 10 8 8 8 6 6 6 5
7 7 7 7 7 6 7 8 9 9 12 8 8 8 6 5 7 5 4 7 7 9 7 8 11 9 9 9 10 10 12 12 11 10 10 10 11 9 7 6 6 6 6 6 5
7 8 7 7 7 7 8 9 7 7 11 9 7 7 6 5 6 6 5 7 8 9 8 10 8 7 8 9 10 10 12 12 12 10 10 10 12 9 7 6 6 6 5 5 5
7 7 7 7 8 8 8 7 6 5 11 11 9 7 5 6 6 3 3 5 6 8 8 9 6 7 8 9 8 11 8 9 11 11 15 9 14 10 9 8 6 5 5 4 4
8 7 7 7 8 8 8 6 5 5 16 10 8 4 6 7 6 6 3 5 8 7 7 9 8 8 9 8 7 10 7 9 10 11 11 11 13 11 8 9 7 6 6 6 5
7 7 7 7 6 7 6 5 5 12 16 11 8 8 9 7 7 5 5 4 4 7 7 8 5 7 7 7 7 7 8 9 10 11 16 12 12 12 10 10 9 7 6 6 5
7 7 8 7 8 5 5 6 12 14 10 12 10 9 9 10 9 7 8 8 9 11 11 9 9 7 6 8 7 8 11 15 17 17 17 11 14 11 9 8 8 8 6 6 5
7 7 6 6 4 3 4 8 14 11 11 9 10 10 11 10 9 8 9 10 7 8 10 12 13 8 7 8 9 9 10 15 20 19 16 12 17 12 8 7 6 6 6 5 5
7 6 5 4 3 3 6 11 12 10 9 11 10 12 11 9 10 10 10 10 8 8 13 13 12 7 7 7 8 9 14 9 14 14 16 13 13 10 9 8 7 7 6 6 6
8 6 5 3 1 3 7 10 10 8 9 10 13 11 13 10 11 11 11 7 9 7 7 10 14 8 8 8 7 8 8 15 14 21 19 14 13 13 13 10 8 8 7 6 6
7 7 3 1 1 5 10 10 9 8 9 11 11 12 11 12 11 11 11 8 7 7 6 8 11 11 8 12 11 10 11 11 13 14 19 20 17 11 12 10 8 8 7 6 6
5 8 3 1 7 6 9 9 10 9 8 9 9 10 11 10 11 11 10 8 6 7 10 9 11 14 12 8 8 10 10 11 17 17 14 16 16 10 10 8 7 7 6 6 7
5 6 3 2 10 9 8 9 9 10 9 10 10 9 8 10 12 9 9 6 6 7 9 8 12 16 13 10 10 12 11 11 11 13 17 20 16 8 7 7 7 7 6 7 8
5 9 5 4 5 8 9 10 11 8 9 9 9 8 9 9 8 9 9 7 6 6 7 8 11 13 17 14 12 15 13 11 12 17 16 16 14 12 9 9 8 7 7 9 10
5 7 5 9 8 8 9 10 11 11 9 8 9 9 9 11 10 10 8 8 6 7 8 10 14 11 11 11 12 12 13 11 13 13 17 14 13 12 10 9 8 7 8 10 11
6 6 6 7 8 9 11 10 11 10 10 10 9 8 8 10 10 11 9 8 9 7 10 8 13 12 13 11 11 14 12 12 12 12 12 11 13 9 9 10 10 10 11 12 13
4 3 4 8 8 9 9 10 10 9 8 8 8 9 9 9 7 7 7 7 7 8 10 10 11 13 15 12 13 17 11 11 10 10 10 14 11 8 10 12 13 12 13 14 14